Location: Antoign�
(47.0844°N, 0.1131°W)
Time: 07:31:41
(UTC+00:00)

CSL-04 Debris - Pass Details

Date: 03 March 2021
Orbit: 826 x 848 km, 98.9° (Epoch: 11 April)

Event Time Altitude Azimuth Distance (km) Brightness Sun altitude
Rises 18:23:43 0° 145° (SE) 3,374 7.0 -6.7°
Reaches altitude 10° 18:26:07 10° 140° (SE) 2,447 6.3 -7.1°
Maximum altitude 18:31:18 48° 68° (ENE) 1,093 4.4 -8.0°
Drops below altitude 10° 18:36:33 10° 355° (N) 2,476 6.7 -8.9°
Sets 18:39:00 0° 350° (N) 3,418 7.5 -9.3°
